Regional Weather Roundup
Issued by NWS

Home | Current Version | Previous Version | Text Only | Print | Product List | Glossary Off
Versions: 1 2 3 4 5 6 7 8 9 10 11 12 13 14 15 16 17 18 19 20 21 22 23 24 25 26 27 28 29 30 31 32 33 34 35 36 37 38 39 40 41 42 43 44 45 46 47 48 49 50

125
ASUS43 KLSX 251407
RWRMO

WEATHER SUMMARY FOR MISSOURI
NATIONAL WEATHER SERVICE SPRINGFIELD MO
900 AM CDT MON SEP 25 2017

NOTE: "FAIR" INDICATES FEW OR NO CLOUDS BELOW 12,000 FEET WITH NO
       SIGNIFICANT WEATHER AND/OR OBSTRUCTIONS TO VISIBILITY.
       CURRENT SKY AND/OR WEATHER CONDITIONS ARE NOT AVAILABLE FOR
       CHILLICOTHE AND FARMINGTON.

MOZ001>031-035>038-043-044-053-054-251500-
...NORTHERN AND WESTERN MISSOURI...

CITY           SKY/WX    TMP DP  RH WIND       PRES   REMARKS
KANSAS CTY INT MOSUNNY   74  67  78 S10       29.95S
KANSAS C DTWN  MOSUNNY   75  66  73 S7        29.95R
LEE`S SUMMIT   SUNNY     72  65  78 S9        29.97R
ST JOSEPH      MOSUNNY   74  67  78 S7        29.94S
CHILLICOTHE      N/A     70  67  90 S3        29.97S
KIRKSVILLE     MOSUNNY   73  66  78 SW5       29.99R

$$
MOZ066>068-077>081-088>096-101>105-251500-
...SOUTHWEST MISSOURI...

CITY           SKY/WX    TMP DP  RH WIND       PRES   REMARKS
SPRINGFIELD    SUNNY     73  67  81 SE10      30.01R
JOPLIN         SUNNY     74  67  78 S8        29.98R

$$
MOZ032>034-039>042-045>050-055>058-069>072-251500-
...CENTRAL MISSOURI...

CITY           SKY/WX    TMP DP  RH WIND       PRES   REMARKS
COLUMBIA       SUNNY     72  67  84 S8        30.01R
JEFFERSON CITY SUNNY     71  64  78 E6        30.00R
ROLLA          SUNNY     74  66  76 S7        30.04R
SEDALIA        SUNNY     76  68  76 S8        30.00R
WHITEMAN AFB   MOSUNNY   72  66  81 S10       29.97R
WARRENSBURG    SUNNY     72  64  78 S7        29.97R
OSAGE BEACH    SUNNY     71  65  81 S5        30.02R

$$
MOZ051-052-059>065-251500-
...EAST CENTRAL MISSOURI...

CITY           SKY/WX    TMP DP  RH WIND       PRES   REMARKS
ST LOUIS INTL  MOSUNNY   78  67  68 S3        30.03R
SPIRIT OF STL  SUNNY     74  67  78 CALM      30.01S
ST CHARLES     SUNNY     76  67  73 CALM      30.01S

$$
MOZ072>076-082>087-097>100-106>115-251500-
...SOUTH CENTRAL AND SOUTHEAST MISSOURI...

CITY           SKY/WX    TMP DP  RH WIND       PRES   REMARKS
CAPE GIRARDEAU SUNNY     73  66  78 CALM      30.03R
FARMINGTON     SUNNY     73  67  81 CALM      30.05S
POPLAR BLUFF   SUNNY     73  68  84 NE3       30.02R
WEST PLAINS    SUNNY     71  66  84 E3        30.05S

$$



USA.gov is the U.S. government's official web portal to all federal, state and local government web resources and services.